Location: Tuttlingen
(47.9853°N, 8.8165°E)
Time: 12:32:36
(UTC+01:00)

ISS - Pass Details

Date: 17 November 2017
Orbit: 401 x 407 km, 51.6° (Epoch: 25 November)

Event Time Altitude Azimuth Distance (km) Brightness Sun altitude
Exits shadow 06:21:17 11° 237° (WSW) 1,399 -1.5 -12.1°
Maximum altitude 06:21:51 11° 226° (SW) 1,377 -1.4 -12.0°
Drops below altitude 10° 06:22:55 10° 207° (SSW) 1,448 -1.1 -11.9°
Sets 06:26:11 0° 171° (S) 2,301 0.4 -11.3°
